Time,TemperatureF,DewpointF,PressureIn,WindDirection,WindDirectionDegrees,WindSpeedMPH,WindSpeedGustMPH,Humidity,HourlyPrecipIn,Conditions,Clouds,dailyrainin,SoftwareType,DateUTC
2013-07-02 00:01:00,73.0,59.0,-100.00,NNE,23,4.0,-999.0,62,-99.99,,,-99.99,,2013-07-02 05:01:00,
2013-07-02 00:22:00,72.0,59.0,-100.00,NNE,23,5.0,-999.0,63,-99.99,,,-99.99,,2013-07-02 05:22:00,
2013-07-02 00:32:00,72.0,59.0,-100.00,NNE,23,5.0,-999.0,63,-99.99,,,-99.99,,2013-07-02 05:32:00,
2013-07-02 00:43:00,72.0,59.0,-100.00,NNE,23,5.0,-999.0,63,-99.99,,,-99.99,,2013-07-02 05:43:00,
2013-07-02 00:53:00,72.0,59.0,-100.00,NNE,23,4.0,-999.0,64,-99.99,,,-99.99,,2013-07-02 05:53:00,
2013-07-02 01:01:00,71.0,59.0,-100.00,NNE,23,3.0,-999.0,66,-99.99,,,-99.99,,2013-07-02 06:01:00,
2013-07-02 01:23:00,71.0,59.0,-100.00,NNE,23,4.0,-999.0,66,-99.99,,,-99.99,,2013-07-02 06:23:00,
2013-07-02 01:33:00,71.0,59.0,-100.00,NNE,23,3.0,-999.0,66,-99.99,,,-99.99,,2013-07-02 06:33:00,
2013-07-02 01:43:00,71.0,59.0,-100.00,NNE,23,3.0,-999.0,66,-99.99,,,-99.99,,2013-07-02 06:43:00,
2013-07-02 01:53:00,70.0,59.0,-100.00,NE,45,3.0,-999.0,67,-99.99,,,-99.99,,2013-07-02 06:53:00,
2013-07-02 02:01:00,70.0,59.0,-100.00,NE,45,2.0,-999.0,68,-99.99,,,-99.99,,2013-07-02 07:01:00,
2013-07-02 02:11:00,70.0,59.0,-100.00,NE,45,2.0,-999.0,68,-99.99,,,-99.99,,2013-07-02 07:11:00,
2013-07-02 02:22:00,70.0,59.0,-100.00,NE,45,2.0,-999.0,68,-99.99,,,-99.99,,2013-07-02 07:22:00,
2013-07-02 02:33:00,67.0,59.0,-100.00,NNE,23,1.0,-999.0,74,-99.99,,,-99.99,,2013-07-02 07:33:00,
2013-07-02 02:44:00,67.0,59.0,-100.00,NNE,23,1.0,-999.0,74,-99.99,,,-99.99,,2013-07-02 07:44:00,
2013-07-02 02:53:00,67.0,59.0,-100.00,NE,45,2.0,-999.0,73,-99.99,,,-99.99,,2013-07-02 07:53:00,
2013-07-02 03:02:00,67.0,58.0,-100.00,NNE,23,2.0,-999.0,74,-99.99,,,-99.99,,2013-07-02 08:02:00,
2013-07-02 03:22:00,67.0,59.0,-100.00,NNE,23,2.0,-999.0,75,-99.99,,,-99.99,,2013-07-02 08:22:00,
2013-07-02 03:33:00,67.0,59.0,-100.00,NNE,23,2.0,-999.0,75,-99.99,,,-99.99,,2013-07-02 08:33:00,
2013-07-02 03:44:00,67.0,59.0,-100.00,NNE,23,2.0,-999.0,75,-99.99,,,-99.99,,2013-07-02 08:44:00,
2013-07-02 03:53:00,67.0,58.0,-100.00,ESE,113,0.0,-999.0,74,-99.99,,,-99.99,,2013-07-02 08:53:00,
2013-07-02 04:01:00,65.0,59.0,-100.00,West,270,1.0,-999.0,78,-99.99,,,-99.99,,2013-07-02 09:01:00,
2013-07-02 04:23:00,64.0,58.0,-100.00,West,270,3.0,-999.0,81,-99.99,,,-99.99,,2013-07-02 09:23:00,
2013-07-02 04:33:00,64.0,59.0,-100.00,WNW,293,2.0,-999.0,84,-99.99,,,-99.99,,2013-07-02 09:33:00,
2013-07-02 04:43:00,64.0,59.0,-100.00,WNW,293,2.0,-999.0,84,-99.99,,,-99.99,,2013-07-02 09:43:00,
2013-07-02 04:52:00,64.0,58.0,-100.00,WNW,293,3.0,-999.0,81,-99.99,,,-99.99,,2013-07-02 09:52:00,
2013-07-02 05:01:00,63.0,58.0,-100.00,WNW,293,1.0,-999.0,84,-99.99,,,-99.99,,2013-07-02 10:01:00,
2013-07-02 05:11:00,63.0,58.0,-100.00,WNW,293,1.0,-999.0,84,-99.99,,,-99.99,,2013-07-02 10:11:00,
2013-07-02 05:22:00,63.0,58.0,-100.00,NW,315,1.0,-999.0,84,-99.99,,,-99.99,,2013-07-02 10:22:00,
2013-07-02 05:33:00,63.0,58.0,-100.00,West,270,1.0,-999.0,85,-99.99,,,-99.99,,2013-07-02 10:33:00,
2013-07-02 05:43:00,63.0,58.0,-100.00,West,270,1.0,-999.0,85,-99.99,,,-99.99,,2013-07-02 10:43:00,
2013-07-02 05:52:00,62.0,58.0,-100.00,WNW,293,0.0,-999.0,86,-99.99,,,-99.99,,2013-07-02 10:52:00,
2013-07-02 06:01:00,61.0,58.0,-100.00,West,270,3.0,-999.0,90,-99.99,,,-99.99,,2013-07-02 11:01:00,
2013-07-02 06:22:00,61.0,58.0,-100.00,WNW,293,0.0,-999.0,90,-99.99,,,-99.99,,2013-07-02 11:22:00,
2013-07-02 06:33:00,60.0,58.0,-100.00,West,270,2.0,-999.0,91,-99.99,,,-99.99,,2013-07-02 11:33:00,
2013-07-02 06:42:00,60.0,58.0,-100.00,West,270,2.0,-999.0,91,-99.99,,,-99.99,,2013-07-02 11:42:00,
2013-07-02 06:52:00,62.0,58.0,-100.00,WNW,293,0.0,-999.0,89,-99.99,,,-99.99,,2013-07-02 11:52:00,
2013-07-02 07:01:00,62.0,59.0,-100.00,WNW,293,1.0,-999.0,88,-99.99,,,-99.99,,2013-07-02 12:01:00,
2013-07-02 07:11:00,62.0,59.0,-100.00,WNW,293,1.0,-999.0,88,-99.99,,,-99.99,,2013-07-02 12:11:00,
2013-07-02 07:23:00,66.0,61.0,-100.00,NW,315,0.0,-999.0,83,-99.99,,,-99.99,,2013-07-02 12:23:00,
2013-07-02 07:33:00,66.0,62.0,-100.00,NW,315,0.0,-999.0,85,-99.99,,,-99.99,,2013-07-02 12:33:00,
2013-07-02 07:43:00,66.0,62.0,-100.00,NW,315,0.0,-999.0,85,-99.99,,,-99.99,,2013-07-02 12:43:00,
2013-07-02 11:12:00,83.0,56.0,-100.00,WNW,293,1.0,-999.0,39,-99.99,,,-99.99,,2013-07-02 16:12:00,
2013-07-02 11:22:00,83.0,55.0,-100.00,NE,45,1.0,-999.0,38,-99.99,,,-99.99,,2013-07-02 16:22:00,
2013-07-02 11:33:00,83.0,55.0,-100.00,WNW,293,2.0,-999.0,38,-99.99,,,-99.99,,2013-07-02 16:33:00,
2013-07-02 11:43:00,83.0,55.0,-100.00,WNW,293,2.0,-999.0,38,-99.99,,,-99.99,,2013-07-02 16:43:00,
2013-07-02 12:02:00,80.0,57.0,-100.00,NW,315,5.0,-999.0,45,-99.99,,,-99.99,,2013-07-02 17:02:00,
2013-07-02 12:22:00,80.0,59.0,-100.00,WNW,293,5.0,-999.0,49,-99.99,,,-99.99,,2013-07-02 17:22:00,
2013-07-02 12:33:00,79.0,61.0,-100.00,NW,315,8.0,-999.0,53,-99.99,,,-99.99,,2013-07-02 17:33:00,
2013-07-02 12:53:00,81.0,61.0,-100.00,West,270,6.0,-999.0,50,-99.99,,,-99.99,,2013-07-02 17:53:00,
2013-07-02 13:02:00,80.0,60.0,-100.00,WSW,248,5.0,-999.0,50,-99.99,,,-99.99,,2013-07-02 18:02:00,
2013-07-02 13:23:00,80.0,58.0,-100.00,WSW,248,4.0,-999.0,46,-99.99,,,-99.99,,2013-07-02 18:23:00,
2013-07-02 13:34:00,81.0,59.0,-100.00,WSW,248,3.0,-999.0,47,-99.99,,,-99.99,,2013-07-02 18:34:00,
2013-07-02 13:43:00,81.0,59.0,-100.00,WSW,248,3.0,-999.0,47,-99.99,,,-99.99,,2013-07-02 18:43:00,
2013-07-02 13:53:00,82.0,60.0,-100.00,SW,225,1.0,-999.0,47,-99.99,,,-99.99,,2013-07-02 18:53:00,
2013-07-02 14:01:00,82.0,59.0,-100.00,West,270,5.0,-999.0,46,-99.99,,,-99.99,,2013-07-02 19:01:00,
2013-07-02 14:12:00,82.0,59.0,-100.00,West,270,5.0,-999.0,46,-99.99,,,-99.99,,2013-07-02 19:12:00,
2013-07-02 14:22:00,82.0,60.0,-100.00,West,270,3.0,-999.0,46,-99.99,,,-99.99,,2013-07-02 19:22:00,
2013-07-02 14:34:00,83.0,60.0,-100.00,WSW,248,3.0,-999.0,46,-99.99,,,-99.99,,2013-07-02 19:34:00,
2013-07-02 14:43:00,83.0,60.0,-100.00,WSW,248,3.0,-999.0,46,-99.99,,,-99.99,,2013-07-02 19:43:00,
2013-07-02 14:53:00,85.0,56.0,-100.00,West,270,2.0,-999.0,38,-99.99,,,-99.99,,2013-07-02 19:53:00,
2013-07-02 15:02:00,85.0,59.0,-100.00,WNW,293,3.0,-999.0,42,-99.99,,,-99.99,,2013-07-02 20:02:00,
2013-07-02 15:22:00,86.0,56.0,-100.00,WNW,293,4.0,-999.0,37,-99.99,,,-99.99,,2013-07-02 20:22:00,
2013-07-02 15:33:00,85.0,55.0,-100.00,WSW,248,0.0,-999.0,36,-99.99,,,-99.99,,2013-07-02 20:33:00,
2013-07-02 15:43:00,85.0,55.0,-100.00,WSW,248,0.0,-999.0,36,-99.99,,,-99.99,,2013-07-02 20:43:00,
2013-07-02 15:52:00,86.0,56.0,-100.00,SW,225,2.0,-999.0,36,-99.99,,,-99.99,,2013-07-02 20:52:00,
2013-07-02 16:02:00,87.0,57.0,-100.00,WNW,293,4.0,-999.0,37,-99.99,,,-99.99,,2013-07-02 21:02:00,
2013-07-02 16:22:00,86.0,55.0,-100.00,ESE,113,0.0,-999.0,35,-99.99,,,-99.99,,2013-07-02 21:22:00,
2013-07-02 16:33:00,87.0,59.0,-100.00,SW,225,2.0,-999.0,38,-99.99,,,-99.99,,2013-07-02 21:33:00,
2013-07-02 16:43:00,87.0,59.0,-100.00,SW,225,2.0,-999.0,38,-99.99,,,-99.99,,2013-07-02 21:43:00,
2013-07-02 16:52:00,89.0,57.0,-100.00,SW,225,0.0,-999.0,35,-99.99,,,-99.99,,2013-07-02 21:52:00,
2013-07-02 17:01:00,87.0,58.0,-100.00,WSW,248,4.0,-999.0,37,-99.99,,,-99.99,,2013-07-02 22:01:00,
2013-07-02 17:11:00,87.0,58.0,-100.00,WSW,248,4.0,-999.0,37,-99.99,,,-99.99,,2013-07-02 22:11:00,
2013-07-02 17:22:00,85.0,58.0,-100.00,WSW,248,3.0,-999.0,40,-99.99,,,-99.99,,2013-07-02 22:22:00,
2013-07-02 17:34:00,84.0,59.0,-100.00,WSW,248,2.0,-999.0,43,-99.99,,,-99.99,,2013-07-02 22:34:00,
2013-07-02 17:43:00,84.0,59.0,-100.00,WSW,248,2.0,-999.0,43,-99.99,,,-99.99,,2013-07-02 22:43:00,
2013-07-02 17:53:00,84.0,61.0,-100.00,WSW,248,3.0,-999.0,46,-99.99,,,-99.99,,2013-07-02 22:53:00,
2013-07-02 18:01:00,82.0,62.0,-100.00,WSW,248,3.0,-999.0,51,-99.99,,,-99.99,,2013-07-02 23:01:00,
2013-07-02 18:22:00,82.0,60.0,-100.00,West,270,2.0,-999.0,48,-99.99,,,-99.99,,2013-07-02 23:22:00,
2013-07-02 18:33:00,82.0,58.0,-100.00,WNW,293,2.0,-999.0,44,-99.99,,,-99.99,,2013-07-02 23:33:00,
2013-07-02 18:44:00,82.0,58.0,-100.00,WNW,293,2.0,-999.0,44,-99.99,,,-99.99,,2013-07-02 23:44:00,
2013-07-02 18:52:00,81.0,62.0,-100.00,West,270,3.0,-999.0,52,-99.99,,,-99.99,,2013-07-02 23:52:00,
2013-07-02 19:01:00,80.0,64.0,-100.00,WNW,293,4.0,-999.0,57,-99.99,,,-99.99,,2013-07-03 00:01:00,
2013-07-02 19:11:00,80.0,64.0,-100.00,WNW,293,4.0,-999.0,57,-99.99,,,-99.99,,2013-07-03 00:11:00,
2013-07-02 19:22:00,79.0,61.0,-100.00,NW,315,4.0,-999.0,55,-99.99,,,-99.99,,2013-07-03 00:22:00,
2013-07-02 19:33:00,78.0,62.0,-100.00,WNW,293,3.0,-999.0,57,-99.99,,,-99.99,,2013-07-03 00:33:00,
2013-07-02 19:44:00,78.0,62.0,-100.00,WNW,293,3.0,-999.0,57,-99.99,,,-99.99,,2013-07-03 00:44:00,
2013-07-02 19:52:00,78.0,62.0,-100.00,NW,315,4.0,-999.0,58,-99.99,,,-99.99,,2013-07-03 00:52:00,
2013-07-02 20:01:00,79.0,63.0,-100.00,WNW,293,3.0,-999.0,57,-99.99,,,-99.99,,2013-07-03 01:01:00,
2013-07-02 20:11:00,79.0,63.0,-100.00,WNW,293,3.0,-999.0,57,-99.99,,,-99.99,,2013-07-03 01:11:00,
2013-07-02 20:22:00,79.0,64.0,-100.00,WNW,293,5.0,-999.0,59,-99.99,,,-99.99,,2013-07-03 01:22:00,
2013-07-02 20:33:00,78.0,64.0,-100.00,West,270,2.0,-999.0,63,-99.99,,,-99.99,,2013-07-03 01:33:00,
2013-07-02 20:42:00,78.0,64.0,-100.00,West,270,2.0,-999.0,63,-99.99,,,-99.99,,2013-07-03 01:42:00,
2013-07-02 20:59:00,77.0,66.0,-100.00,West,270,1.0,-999.0,70,-99.99,,,-99.99,,2013-07-03 01:59:00,
2013-07-02 21:02:00,75.0,67.0,-100.00,NNE,23,1.0,-999.0,75,-99.99,,,-99.99,,2013-07-03 02:02:00,
2013-07-02 21:26:00,74.0,66.0,-100.00,NW,315,2.0,-999.0,77,-99.99,,,-99.99,,2013-07-03 02:26:00,
2013-07-02 21:37:00,73.0,66.0,-100.00,SSE,158,1.0,-999.0,79,-99.99,,,-99.99,,2013-07-03 02:37:00,
2013-07-02 21:43:00,73.0,66.0,-100.00,SSE,158,1.0,-999.0,79,-99.99,,,-99.99,,2013-07-03 02:43:00,
2013-07-02 22:02:00,73.0,66.0,-100.00,WSW,248,4.0,-999.0,77,-99.99,,,-99.99,,2013-07-03 03:02:00,
2013-07-02 22:12:00,73.0,66.0,-100.00,WSW,248,4.0,-999.0,77,-99.99,,,-99.99,,2013-07-03 03:12:00,
2013-07-02 22:25:00,72.0,65.0,-100.00,West,270,4.0,-999.0,79,-99.99,,,-99.99,,2013-07-03 03:25:00,
2013-07-02 22:35:00,73.0,65.0,-100.00,WSW,248,4.0,-999.0,77,-99.99,,,-99.99,,2013-07-03 03:35:00,
2013-07-02 22:58:00,72.0,65.0,-100.00,NW,315,2.0,-999.0,80,-99.99,,,-99.99,,2013-07-03 03:58:00,
2013-07-02 23:01:00,70.0,65.0,-100.00,NNE,23,1.0,-999.0,83,-99.99,,,-99.99,,2013-07-03 04:01:00,
2013-07-02 23:22:00,70.0,65.0,-100.00,North,0,3.0,-999.0,83,-99.99,,,-99.99,,2013-07-03 04:22:00,
2013-07-02 23:33:00,70.0,65.0,-100.00,West,270,2.0,-999.0,82,-99.99,,,-99.99,,2013-07-03 04:33:00,
2013-07-02 23:43:00,70.0,65.0,-100.00,West,270,2.0,-999.0,82,-99.99,,,-99.99,,2013-07-03 04:43:00,
2013-07-02 23:52:00,68.0,64.0,-100.00,SW,225,2.0,-999.0,87,-99.99,,,-99.99,,2013-07-03 04:52:00,